TimePST,TemperatureF,Dew PointF,Humidity,Sea Level PressureIn,VisibilityMPH,Wind Direction,Wind SpeedMPH,Gust SpeedMPH,PrecipitationIn,Events,Conditions,WindDirDegrees,DateUTC
12:53 AM,41.0,30.0,65,30.22,10.0,Calm,Calm,-,N/A,,Clear,0,2013-02-27 08:53:00
1:53 AM,39.9,28.9,65,30.22,10.0,Calm,Calm,-,N/A,,Clear,0,2013-02-27 09:53:00
2:53 AM,37.0,28.9,73,30.23,10.0,Calm,Calm,-,N/A,,Clear,0,2013-02-27 10:53:00
3:53 AM,36.0,28.9,76,30.24,10.0,Calm,Calm,-,N/A,,Clear,0,2013-02-27 11:53:00
4:53 AM,34.0,28.9,82,30.25,10.0,SE,3.5,-,N/A,,Clear,130,2013-02-27 12:53:00
5:53 AM,34.0,28.0,79,30.26,10.0,Calm,Calm,-,N/A,,Clear,0,2013-02-27 13:53:00
6:53 AM,34.0,28.0,79,30.28,10.0,Calm,Calm,-,N/A,,Clear,0,2013-02-27 14:53:00
7:53 AM,42.1,34.0,73,30.32,10.0,Calm,Calm,-,N/A,,Clear,0,2013-02-27 15:53:00
8:53 AM,46.4,33.8,62,30.33,10.0,SE,3.5,-,N/A,,Clear,140,2013-02-27 16:53:00
9:53 AM,52.0,35.1,53,30.34,10.0,SW,4.6,-,N/A,,Clear,230,2013-02-27 17:53:00
10:53 AM,54.0,35.1,49,30.33,10.0,Variable,3.5,-,N/A,,Clear,0,2013-02-27 18:53:00
11:53 AM,60.1,36.0,41,30.32,-9999.0,Calm,Calm,-,N/A,,Clear,0,2013-02-27 19:53:00
12:53 PM,-9999,-9999,N/A,30.32,-9999.0,Calm,Calm,-,N/A,,Clear,0,2013-02-27 20:53:00
1:53 PM,-9999,-9999,N/A,30.29,10.0,North,-9999.0,-,N/A,,Clear,0,2013-02-27 21:53:00
2:53 PM,66.0,32.0,28,30.27,10.0,Calm,Calm,-,N/A,,Clear,0,2013-02-27 22:53:00
3:53 PM,66.0,30.9,27,30.27,10.0,Calm,Calm,-,N/A,,Clear,0,2013-02-27 23:53:00
4:53 PM,66.0,30.9,27,30.26,10.0,Calm,Calm,-,N/A,,Clear,0,2013-02-28 00:53:00
5:53 PM,63.0,28.9,28,30.27,10.0,Calm,Calm,-,N/A,,Clear,0,2013-02-28 01:53:00
6:53 PM,55.9,30.9,39,30.29,10.0,Calm,Calm,-,N/A,,Clear,0,2013-02-28 02:53:00
7:53 PM,52.0,34.0,50,30.30,10.0,Calm,Calm,-,N/A,,Clear,0,2013-02-28 03:53:00
8:53 PM,51.1,36.0,56,30.32,10.0,Calm,Calm,-,N/A,,Clear,0,2013-02-28 04:53:00
9:53 PM,51.1,36.0,56,30.33,10.0,South,3.5,-,N/A,,Clear,170,2013-02-28 05:53:00
10:53 PM,50.0,36.0,59,30.35,10.0,ESE,3.5,-,N/A,,Clear,120,2013-02-28 06:53:00
11:53 PM,50.0,36.0,59,30.35,10.0,Calm,Calm,-,N/A,,Clear,0,2013-02-28 07:53:00